Regional Weather Roundup
Issued by NWS

Home | Current Version | Previous Version | Graphics & Text | Print | Product List | Glossary On
Versions: 1 2 3 4 5 6 7 8 9 10 11 12 13 14 15 16 17 18 19 20 21 22 23 24 25 26 27 28 29 30 31 32 33 34 35 36 37 38 39 40 41 42 43 44 45 46 47 48 49 50
000
ASUS43 KOAX 290602
RWRNE

WEATHER ROUNDUP FOR NEBRASKA
NATIONAL WEATHER SERVICE OMAHA NE
100 AM CDT FRI AUG 29 2014

NOTES: SATELLITE DATA IS BEING USED TO AUGMENT CLOUD COVER ABOVE
       12000 FEET.
       "FAIR" INDICATES FEW OR NO CLOUDS BELOW 12,000 FEET WITH NO
       SIGNIFICANT WEATHER AND/OR OBSTRUCTIONS TO VISIBILITY.

  * THESE STATIONS DO NOT REPORT WEATHER SUCH AS RAIN...SNOW OR FOG.

NEZ001>004-019>022-054>056-290700-
NEBRASKA PANHANDLE

CITY           SKY/WX    TMP DP  RH WIND       PRES   REMARKS
SCOTTSBLUFF    CLEAR     54  52  93 NE3       30.02F
6HR MIN TEMP:  53; 6HR MAX TEMP:  70;

ALLIANCE       PTCLDY    54  51  90 W8        29.99F
6HR MIN TEMP:  54; 6HR MAX TEMP:  68;

CHADRON        CLEAR     55  53  93 W6        29.96F
6HR MIN TEMP:  55; 6HR MAX TEMP:  66;

KIMBALL        CLEAR     54  49  85 W7        30.06F
SIDNEY         PTCLDY    58  51  78 NW9       30.04F
6HR MIN TEMP:  58; 6HR MAX TEMP:  67;

$$

NEZ057>060-069>072-079>082-290700-
SOUTHWEST NEBRASKA

CITY           SKY/WX    TMP DP  RH WIND       PRES   REMARKS
NORTH PLATTE   CLEAR     59  57  93 NW6       29.93S
6HR MIN TEMP:  59; 6HR MAX TEMP:  79;

IMPERIAL       PTCLDY    60  56  86 NW5       29.96F
6HR MIN TEMP:  60; 6HR MAX TEMP:  74;

LEXINGTON      MOCLDY    65  63  94 NW10      29.89R
MCCOOK         CLEAR     63  57  81 NW12      29.91F
6HR MIN TEMP:  63; 6HR MAX TEMP:  75;

OGALLALA       MOCLDY    57  54  88 W3        29.96S
$$

NEZ005>010-023>029-035>040-094-290700-
NORTH CENTRAL NEBRASKA

CITY           SKY/WX    TMP DP  RH WIND       PRES   REMARKS
VALENTINE      MOCLDY    63  62  97 SW6       29.89F
6HR MIN TEMP:  62; 6HR MAX TEMP:  72; 6HR PCP:  0.21;

AINSWORTH      CLEAR     60  59  97 W5        29.89S
BROKEN BOW     PTCLDY    63  61  93 CALM      29.88F
6HR MIN TEMP:  63; 6HR MAX TEMP:  81;

O`NEILL        PTCLDY    65  65  99 W6        29.84S
ORD            PTCLDY    63  62  97 NW7       29.84F
6HR MIN TEMP:  63; 6HR MAX TEMP:  80; 6HR PCP:  0.02;

THEDFORD       PTCLDY    60  58  94 SW7       29.93F
$$

NEZ041-046>049-061>064-073>077-083>087-290700-
SOUTH CENTRAL NEBRASKA

CITY           SKY/WX    TMP DP  RH WIND       PRES   REMARKS
GRAND ISLAND   FAIR      71  67  87 SW3       29.84F
6HR MIN TEMP:  71; 6HR MAX TEMP:  79;

AURORA         FAIR      69  68  96 SW5       29.84S
HASTINGS       FAIR      68  62  81 W6        29.85S
6HR MIN TEMP:  68; 6HR MAX TEMP:  79;

HEBRON         FAIR      69  64  83 CALM      29.83F
HOLDREGE       FAIR      67  64  89 CALM      29.86S
KEARNEY *      FAIR      66  64  94 N6        29.87R
YORK           FAIR      68 N/A N/A S7        29.84S
$$

NEZ011>018-030>034-042>045-290700-
NORTHEAST NEBRASKA

CITY           SKY/WX    TMP DP  RH WIND       PRES   REMARKS
NORFOLK        MOCLDY    71  68  90 CALM      29.82S
6HR MIN TEMP:  71; 6HR MAX TEMP:  77; 6HR PCP: TRACE;

ALBION         FAIR      66  64  95 CALM      29.83S
BLAIR          FAIR      73  71  92 SE9       29.84F
FREMONT        FAIR      75  70  85 SE9       29.83F
TEKAMAH        FAIR      72  70  93 SE7       29.82F
6HR MIN TEMP:  71; 6HR MAX TEMP:  79;

WAYNE          FAIR      72  69  91 S6        29.81F
$$

NEZ050>053-065>068-078-088>093-290700-
SOUTHEAST NEBRASKA

CITY           SKY/WX    TMP DP  RH WIND       PRES   REMARKS
LINCOLN        FAIR      73  68  84 S6        29.84F
6HR MIN TEMP:  73; 6HR MAX TEMP:  78;

OMAHA EPPLEY   CLOUDY    73  68  84 SE7       29.84F
6HR MIN TEMP:  72; 6HR MAX TEMP:  80;

BEATRICE       MOCLDY    72  69  89 SE7       29.85F
FALLS CITY     FAIR      75  73  93 SE5       29.85F
6HR MIN TEMP:  74; 6HR MAX TEMP:  80;

NEBRASKA CITY  FAIR      71  71 100 S5        29.85F
PLATTSMOUTH    MOCLDY    73  69  89 SE5       29.85F
$$

NEZ044-045-051>053-067-290700-
OMAHA AREA

CITY           SKY/WX    TMP DP  RH WIND       PRES   REMARKS
OMAHA EPPLEY   CLOUDY    73  68  84 SE7       29.84F
6HR MIN TEMP:  72; 6HR MAX TEMP:  80;

BLAIR          FAIR      73  71  92 SE9       29.84F
FREMONT        FAIR      75  70  85 SE9       29.83F
MILLARD        FAIR      74  70  87 SE6       29.83F
OFFUTT AFB     MOCLDY    73  73 100 E6        29.84F
PLATTSMOUTH    MOCLDY    73  69  89 SE5       29.85F
WAHOO          FAIR      71  68  88 SE7       29.83F
$$


USA.gov is the U.S. government's official web portal to all federal, state and local government web resources and services.